This demonstration page uses our WeatherBlox Daily Observations layout. Learn more.

Left ArrowRight Arrow

Hourly Observations for April 7, 2016

Temp ( °F °C ) Dew Point ( °F °C ) Humidity (%) Winds ( mph kmh ) Pressure ( in mb ) Visibility ( mi km ) Precip ( " mm )
12:53 am 00:53 Clear 59 15 51 10.6 75 75 ENE 6 9 29.95 1014 10 16 0.00 0.00
1:53 am 01:53 Clear 62 16.7 48 8.9 60 60 N 6 9 29.94 1014 10 16 0.00 0.00
2:53 am 02:53 Clear 57 13.9 49 9.4 74 74 N 3 6 29.93 1014 10 16 0.00 0.00
3:53 am 03:53 Clear 57 13.9 49 9.4 74 74 Calm 29.92 1013 10 16 0.00 0.00
4:53 am 04:53 Clear 53 11.7 47 8.3 80 80 Calm 29.91 1013 10 16 0.00 0.00
5:53 am 05:53 Clear 53 11.7 47 8.3 80 80 Calm 29.91 1013 10 16 0.00 0.00
6:53 am 06:53 Sunny 52 11.1 46 7.8 80 80 Calm 29.91 1013 10 16 0.00 0.00
7:53 am 07:53 Sunny 56 13.3 48 8.9 75 75 Calm 29.91 1013 10 16 0.00 0.00
8:53 am 08:53 Sunny 66 18.9 51 10.6 59 59 Calm 29.90 1013 10 16 0.00 0.00
9:53 am 09:53 Sunny 76 24.4 49 9.4 39 39 NW 5 7 29.88 1012 10 16 0.00 0.00
10:53 am 10:53 Sunny 81 27.2 50 10 34 34 VRB 5 7 29.86 1011 10 16 0.00 0.00
11:53 am 11:53 Sunny 86 30 43 6.1 22 22 NNE 8 13 29.85 1011 10 16 0.00 0.00
12:53 pm 12:53 Sunny 89 31.7 44 6.7 21 21 VRB 3 6 29.82 1010 10 16 0.00 0.00
1:53 pm 13:53 Sunny 91 32.8 43 6.1 19 19 VRB 3 6 29.78 1008 10 16 0.00 0.00
2:53 pm 14:53 Sunny 91 32.8 42 5.6 18 18 S 5 7 29.74 1007 10 16 0.00 0.00
3:53 pm 15:53 Sunny 92 33.3 44 6.7 19 19 SSE 7 11 29.71 1006 10 16 0.00 0.00
4:53 pm 16:53 Sunny 86 30 52 11.1 31 31 S 22 35 29.71 1006 10 16 0.00 0.00
5:53 pm 17:53 Sunny 83 28.3 51 10.6 33 33 S 20 31 29.72 1006 10 16 0.00 0.00
6:53 pm 18:53 Sunny 78 25.6 54 12.2 43 43 S 20 31 29.74 1007 10 16 0.00 0.00
7:53 pm 19:53 Clear 74 23.3 55 12.8 52 52 S 8 13 29.77 1008 10 16 0.00 0.00
8:53 pm 20:53 Clear 73 22.8 50 10 44 44 SW 9 15 29.81 1009 10 16 0.00 0.00
9:53 pm 21:53 Clear 69 20.6 50 10 51 51 W 6 9 29.83 1010 10 16 0.00 0.00
10:53 pm 22:53 Clear 68 20 49 9.4 51 51 WSW 3 6 29.84 1011 10 16 0.00 0.00
11:53 pm 23:53 Clear 65 18.3 50 10 59 59 W 3 6 29.85 1011 10 16 0.00 0.00

Powered by AerisWeather